Tracking 31027 objects as of 19-Jul-2025
HD Live streaming from Space Station
objects crossing your sky now

COSMOS 1989 (ETALON 1)

Track COSMOS 1989 (ETALON 1) now!
COSMOS 1989 (ETALON 1) is classified as:


NORAD ID: 19751
Int'l Code: 1989-001C
Perigee: 19,072.9 km
Apogee: 19,192.5 km
Inclination: 64.8 °
Period: 675.6 minutes
Semi major axis: 25503 km
RCS: 1.0844 m2 (large)
Launch date: January 10, 1989
Source: Commonwealth of Independent States (former USSR) (CIS)
Launch site: TYURATAM MISSILE AND SPACE COMPLEX (TTMTR)
Your satellite tracking list
STARLINK-5403
Track 1 satellite(s)




NASA's NSSDC Master Catalog

Two Line Element Set (TLE):
1 19751U 89001C   25199.42854493 -.00000028  00000-0  00000-0 0  9997
2 19751  64.7504  83.6262 0023440 216.8511 315.3281  2.13156033284253
Source of the keplerian elements: AFSPC